Stündliche Wetter Junín

Heute, 8 März, Montag

Zeit Temperatur Niederschläge Wind Luftdruck Luftfeuchtigkeit
00:00 +15°C° 0 mm 1 m/S 601 mmHg 95%
01:00 +15°C° 0 mm 1 m/S 600 mmHg 95%
02:00 +15°C° 0 mm 1 m/S 600 mmHg 95%
03:00 +15°C° 0 mm 1 m/S 600 mmHg 94%
04:00 +15°C° 0 mm 1 m/S 600 mmHg 94%
05:00 +15°C° 0 mm 1 m/S 601 mmHg 94%
06:00 +15°C° 0 mm 1 m/S 601 mmHg 93%
07:00 +16°C° 0 mm 1 m/S 602 mmHg 93%
08:00 +19°C° 0.1 mm 1 m/S 603 mmHg 84%
09:00 +20°C° 0.1 mm 1 m/S 604 mmHg 76%
10:00 +21°C° 0.1 mm 2 m/S 605 mmHg 67%
11:00 +23°C° 0.2 mm 2 m/S 604 mmHg 64%
12:00 +24°C° 0.2 mm 2 m/S 604 mmHg 60%
13:00 +24°C° 0.2 mm 3 m/S 604 mmHg 56%
14:00 +23°C° 0.3 mm 2 m/S 603 mmHg 61%
15:00 +21°C° 0.3 mm 2 m/S 602 mmHg 66%
16:00 +21°C° 0.3 mm 2 m/S 601 mmHg 71%
17:00 +20°C° 0.8 mm 1 m/S 601 mmHg 79%
18:00 +19°C° 0.8 mm 1 m/S 601 mmHg 88%
19:00 +15°C° 0.8 mm 0 m/S 601 mmHg 96%
20:00 +15°C° 0.5 mm 0 m/S 601 mmHg 96%
21:00 +15°C° 0.5 mm 0 m/S 602 mmHg 96%
22:00 +14°C° 0.5 mm 0 m/S 602 mmHg 96%
23:00 +14°C° 0.5 mm 0 m/S 601 mmHg 96%

Morgen, 9 März, Dienstag

Zeit Temperatur Niederschläge Wind Luftdruck Luftfeuchtigkeit
00:00 +15°C° 0.5 mm 1 m/S 601 mmHg 95%
01:00 +15°C° 0.5 mm 1 m/S 600 mmHg 94%
02:00 +14°C° 0 mm 1 m/S 600 mmHg 93%
03:00 +14°C° 0 mm 1 m/S 600 mmHg 91%
04:00 +14°C° 0 mm 1 m/S 599 mmHg 90%
05:00 +14°C° 0 mm 1 m/S 600 mmHg 89%
06:00 +14°C° 0 mm 1 m/S 600 mmHg 87%
07:00 +15°C° 0 mm 1 m/S 601 mmHg 85%
08:00 +19°C° 0 mm 1 m/S 602 mmHg 73%
09:00 +22°C° 0 mm 1 m/S 604 mmHg 61%
10:00 +24°C° 0 mm 1 m/S 605 mmHg 49%
11:00 +25°C° 0 mm 1 m/S 605 mmHg 49%
12:00 +26°C° 0 mm 2 m/S 604 mmHg 49%
13:00 +26°C° 0 mm 2 m/S 604 mmHg 49%
14:00 +25°C° 0.2 mm 2 m/S 602 mmHg 59%
15:00 +23°C° 0.2 mm 2 m/S 601 mmHg 70%
16:00 +20°C° 0.2 mm 2 m/S 600 mmHg 80%
17:00 +20°C° 0.7 mm 1 m/S 600 mmHg 85%
18:00 +18°C° 0.7 mm 1 m/S 600 mmHg 90%
19:00 +16°C° 0.7 mm 1 m/S 600 mmHg 95%
20:00 +16°C° 0.6 mm 1 m/S 600 mmHg 95%
21:00 +16°C° 0.6 mm 1 m/S 601 mmHg 94%
22:00 +14°C° 0.6 mm 0 m/S 601 mmHg 94%
23:00 +14°C° 0.5 mm 0 m/S 601 mmHg 93%

übermorgen, 10 März, Mittwoch

Zeit Temperatur Niederschläge Wind Luftdruck Luftfeuchtigkeit
00:00 +15°C° 0.5 mm 0 m/S 601 mmHg 93%
01:00 +15°C° 0.5 mm 0 m/S 601 mmHg 93%
02:00 +15°C° 0.4 mm 0 m/S 600 mmHg 93%
03:00 +15°C° 0.4 mm 0 m/S 600 mmHg 94%
04:00 +14°C° 0.4 mm 0 m/S 600 mmHg 94%
05:00 +15°C° 0.3 mm 0 m/S 601 mmHg 94%
06:00 +15°C° 0.3 mm 0 m/S 601 mmHg 95%
07:00 +15°C° 0.3 mm 0 m/S 601 mmHg 95%
08:00 +15°C° 0.3 mm 0 m/S 602 mmHg 94%
09:00 +18°C° 0.3 mm 1 m/S 602 mmHg 93%
10:00 +18°C° 0.3 mm 1 m/S 602 mmHg 92%
11:00 +19°C° 0.3 mm 1 m/S 602 mmHg 87%
12:00 +20°C° 0.3 mm 1 m/S 602 mmHg 83%
13:00 +21°C° 0.3 mm 1 m/S 602 mmHg 79%
14:00 +20°C° 0.5 mm 1 m/S 601 mmHg 83%
15:00 +20°C° 0.5 mm 1 m/S 600 mmHg 88%
16:00 +19°C° 0.5 mm 1 m/S 599 mmHg 93%
17:00 +18°C° 0.6 mm 1 m/S 599 mmHg 94%
18:00 +18°C° 0.6 mm 1 m/S 600 mmHg 95%
19:00 +15°C° 0.6 mm 0 m/S 600 mmHg 96%
20:00 +15°C° 1 mm 0 m/S 600 mmHg 96%
21:00 +15°C° 1 mm 0 m/S 601 mmHg 96%
22:00 +15°C° 1 mm 0 m/S 601 mmHg 96%
23:00 +15°C° 0.5 mm 0 m/S 601 mmHg 96%

11 März, Donnerstag

Zeit Temperatur Niederschläge Wind Luftdruck Luftfeuchtigkeit
00:00 +15°C° 0.5 mm 0 m/S 601 mmHg 96%
01:00 +15°C° 0.5 mm 0 m/S 601 mmHg 96%
02:00 +15°C° 0.5 mm 0 m/S 601 mmHg 96%
03:00 +15°C° 0.5 mm 0 m/S 600 mmHg 96%
04:00 +14°C° 0.5 mm 0 m/S 600 mmHg 96%
05:00 +15°C° 0.5 mm 0 m/S 601 mmHg 96%
06:00 +15°C° 0.5 mm 0 m/S 601 mmHg 96%
07:00 +15°C° 0.5 mm 0 m/S 602 mmHg 96%
08:00 +15°C° 0.3 mm 0 m/S 602 mmHg 93%
09:00 +16°C° 0.3 mm 0 m/S 603 mmHg 90%
10:00 +17°C° 0.3 mm 0 m/S 603 mmHg 88%
11:00 +19°C° 0.7 mm 1 m/S 603 mmHg 87%
12:00 +20°C° 0.7 mm 1 m/S 602 mmHg 87%
13:00 +20°C° 0.7 mm 1 m/S 602 mmHg 87%
14:00 +20°C° 0.7 mm 1 m/S 601 mmHg 87%
15:00 +20°C° 0.7 mm 1 m/S 601 mmHg 88%
16:00 +17°C° 0.7 mm 0 m/S 600 mmHg 89%
17:00 +17°C° 1 mm 0 m/S 600 mmHg 91%
18:00 +16°C° 1 mm 0 m/S 600 mmHg 94%
19:00 +15°C° 1 mm 0 m/S 600 mmHg 97%
20:00 +15°C° 1.2 mm 0 m/S 601 mmHg 97%
21:00 +15°C° 1.2 mm 0 m/S 601 mmHg 97%
22:00 +15°C° 1.2 mm 0 m/S 602 mmHg 97%
23:00 +15°C° 1 mm 0 m/S 601 mmHg 97%

12 März, Freitag

Zeit Temperatur Niederschläge Wind Luftdruck Luftfeuchtigkeit
00:00 +15°C° 1 mm 0 m/S 601 mmHg 97%
01:00 +15°C° 1 mm 0 m/S 601 mmHg 97%
02:00 +15°C° 1.3 mm 0 m/S 601 mmHg 97%
03:00 +15°C° 1.3 mm 0 m/S 601 mmHg 97%
04:00 +15°C° 1.3 mm 0 m/S 600 mmHg 97%
05:00 +15°C° 0.8 mm 0 m/S 601 mmHg 97%
06:00 +15°C° 0.8 mm 0 m/S 601 mmHg 97%
07:00 +15°C° 0.8 mm 0 m/S 602 mmHg 97%
08:00 +15°C° 0.6 mm 0 m/S 602 mmHg 95%
09:00 +16°C° 0.6 mm 0 m/S 603 mmHg 94%
10:00 +18°C° 0.6 mm 1 m/S 603 mmHg 93%
11:00 +18°C° 0.5 mm 1 m/S 603 mmHg 92%
12:00 +19°C° 0.5 mm 1 m/S 602 mmHg 92%
13:00 +19°C° 0.5 mm 1 m/S 601 mmHg 91%
14:00 +19°C° 0.6 mm 1 m/S 601 mmHg 92%
15:00 +19°C° 0.6 mm 1 m/S 600 mmHg 93%
16:00 +18°C° 0.6 mm 1 m/S 600 mmHg 94%
17:00 +18°C° 1 mm 1 m/S 600 mmHg 95%
18:00 +16°C° 1 mm 0 m/S 600 mmHg 96%
19:00 +15°C° 1 mm 0 m/S 600 mmHg 98%
20:00 +15°C° 1.5 mm 0 m/S 601 mmHg 98%
21:00 +15°C° 1.5 mm 0 m/S 601 mmHg 98%
22:00 +15°C° 1.5 mm 0 m/S 602 mmHg 98%
23:00 +15°C° 1.4 mm 0 m/S 601 mmHg 98%

13 März, Samstag

Zeit Temperatur Niederschläge Wind Luftdruck Luftfeuchtigkeit
00:00 +15°C° 1.4 mm 0 m/S 601 mmHg 98%
01:00 +15°C° 1.4 mm 0 m/S 601 mmHg 98%
02:00 +15°C° 0.8 mm 0 m/S 601 mmHg 97%
03:00 +14°C° 0.8 mm 0 m/S 600 mmHg 97%
04:00 +14°C° 0.8 mm 0 m/S 600 mmHg 97%
05:00 +14°C° 1.4 mm 0 m/S 600 mmHg 97%
06:00 +14°C° 1.4 mm 0 m/S 601 mmHg 97%
07:00 +14°C° 1.4 mm 0 m/S 601 mmHg 96%
08:00 +15°C° 1.1 mm 0 m/S 602 mmHg 95%
09:00 +15°C° 1.1 mm 0 m/S 602 mmHg 94%
10:00 +16°C° 1.1 mm 0 m/S 603 mmHg 93%
11:00 +17°C° 0.2 mm 0 m/S 603 mmHg 86%
12:00 +19°C° 0.2 mm 0 m/S 603 mmHg 79%
13:00 +20°C° 0.2 mm 0 m/S 603 mmHg 73%
14:00 +22°C° 0.8 mm 1 m/S 602 mmHg 78%
15:00 +21°C° 0.8 mm 1 m/S 601 mmHg 83%
16:00 +20°C° 0.8 mm 1 m/S 600 mmHg 88%
17:00 +17°C° 1.2 mm 0 m/S 601 mmHg 91%
18:00 +16°C° 1.2 mm 0 m/S 601 mmHg 94%
19:00 +16°C° 1.2 mm 0 m/S 601 mmHg 98%
20:00 +15°C° 3.6 mm 0 m/S 601 mmHg 98%
21:00 +15°C° 3.6 mm 0 m/S 602 mmHg 98%
22:00 +15°C° 3.6 mm 0 m/S 602 mmHg 98%
23:00 +15°C° 3.7 mm 0 m/S 602 mmHg 98%
Mehr zeigen

Wir brauchen deine Erlaubnis

Meteoprog und unser Service Anbieter werden persönliche Daten aufbewahren, so wie Cookies, Geräte Bezeichnung oder ähnliche Technologien von deinem Gerät und Prozess, so wie Persönliche Daten Inhalte und Werbungen, genauso wie social Media und den Verkehr zu analysieren.

  • Aufbewahrung und/oder Zugang zu deiner Geräte Informationen.

    Cookies, Geräte Bezeichnung oder andere Informationen, können aufbewahrt oder Zugang zu deinem Gerät erhalten, für den Grund, der oben angegeben wird.

  • Personalisierte Werbung und Inhalte, Messungen, Einblick in das Publikum und Produkt Entwicklung.

    Werbungen und Inhalte können personalisiert werden, basierend auf ein Profil. Mehr Daten können besser personalisierte Werbungen und Inhalte hinzufügen. Werbung und Inhalte können gezeigt und gemessen werden. Einblicke über das Publikum, welche die Werbung gesehen haben und den Inhalt, können abgeleitet werden. So wie Daten können genutzt werden, um es zu verbessern oder die Benutzer Erfahrung zu verbessern das System und die Software.

Wenn du “Ich stimme zu” klickst, erlaubst du uns, die Cookies zu benutzen die Geräte Bezeichnung, den Web oder ähnliche Technologien zu benutzen. Deine Settings, können in deinem Gerät bei deinem Browser geändert werden.

Für den bestimmten Zweck, berechtigten Interessen beruhen darauf, mehr als auf den Inhalt. Du kannst mehr darüber in unseren Privaten und Cookie Politik lesen.